London-Corbin, KY

7:35 AM EDT on August 24, 2019 (GMT -0400)
London-Corbin / McKee

Weather History for KLOZ - June, 2019

Change the Weather History Date:

Sunday, June 9, 2019

  Actual Average Record
Temperature  
Mean Temperature 75 °F 71 °F  
Max Temperature 81 °F 82 °F 93 °F (2008)
Min Temperature 69 °F 60 °F 43 °F (1980)
Degree Days  
Heating Degree Days 0 0  
Month to date heating degree days 0 7  
Since 1 June heating degree days 0 7  
Since 1 July heating degree days 4024 4203  
Cooling Degree Days 10 7  
Month to date cooling degree days 61 53  
Year to date cooling degree days 239 167  
Since 1 June cooling degree days 61 53  
Growing Degree Days 24 (Base 50)    
Moisture  
Dew Point 70 °F    
Average Humidity 85    
Maximum Humidity 100    
Minimum Humidity 69    
Precipitation  
Precipitation 0.41 in 0.15 in 1.18 in (1998)
Month to date precipitation 3.15 1.40  
Sea Level Pressure  
Sea Level Pressure 29.91 in    
Wind  
Wind Speed 4 mph (SE)    
Max Wind Speed 15 mph    
Max Gust Speed 23 mph    
Visibility 9 miles    
Events Rain , Thunderstorm    
T = Trace of Precipitation, MM = Missing Value Source: NWS Daily Summary

Daily Weather History Graph

Daily Weather History Graph

Search for Another Location

Airport or City:

Astronomy

Jun. 09, 2019 Rise Set
Actual Time 6:16 AM EDT 8:55 PM EDT
Civil Twilight 5:45 AM EDT 9:25 PM EDT
Nautical Twilight 5:07 AM EDT 10:04 PM EDT
Astronomical Twilight 4:24 AM EDT 10:47 PM EDT
Moon 12:48 PM EDT (6/9) 1:39 AM EDT (6/9)
Length of Visible Light 15h 40m
Length of Day
14h 39m
Waxing Crescent, 43% of the Moon is Illuminated
Jun 9
Waxing Crescent
Jun 10
First Quarter
Jun 17
Full
Jun 25
Last Quarter
Jul 2
New

Hourly Weather History & Observations

Time (EDT) Temp. Heat Index Dew Point Humidity Pressure Visibility Wind Dir Wind Speed Gust Speed Precip Events Conditions
12:53 AM 70.0 °F - 66.9 °F 90% 29.86 in 10.0 mi East 5.8 mph - N/A   Overcast
1:53 AM 70.0 °F - 68.0 °F 93% 29.85 in 10.0 mi East 4.6 mph - N/A   Overcast
2:53 AM 70.0 °F - 66.9 °F 90% 29.84 in 10.0 mi East 3.5 mph - N/A   Overcast
3:53 AM 70.0 °F - 66.9 °F 90% 29.84 in 10.0 mi East 3.5 mph - N/A   Mostly Cloudy
4:53 AM 69.1 °F - 68.0 °F 96% 29.84 in 10.0 mi East 3.5 mph - N/A   Clear
5:53 AM 69.1 °F - 68.0 °F 96% 29.86 in 10.0 mi East 3.5 mph - N/A   Mostly Cloudy
6:53 AM 69.1 °F - 66.9 °F 93% 29.87 in 10.0 mi East 3.5 mph - N/A   Mostly Cloudy
7:53 AM 69.1 °F - 66.9 °F 93% 29.89 in 10.0 mi East 5.8 mph - N/A   Overcast
8:53 AM 70.0 °F - 68.0 °F 93% 29.91 in 10.0 mi Calm Calm - N/A   Overcast
9:53 AM 72.0 °F - 69.1 °F 91% 29.92 in 10.0 mi East 4.6 mph - N/A   Overcast
10:32 AM 70.0 °F - 69.1 °F 97% 29.97 in 1.8 mi SSE 5.8 mph - 0.04 in Rain Rain
10:50 AM 69.8 °F - 69.8 °F 100% 29.96 in 3.0 mi Calm Calm - 0.09 in Rain Light Rain
10:51 AM 70.0 °F - 69.1 °F 97% 29.93 in 3.0 mi Calm Calm - 0.09 in Rain Light Rain
11:53 AM 73.0 °F - 70.0 °F 90% 29.93 in 10.0 mi Variable 3.5 mph - 0.00 in   Mostly Cloudy
12:45 PM 75.0 °F - 70.0 °F 84% 29.96 in 10.0 mi ESE 6.9 mph - N/A   Overcast
12:53 PM 75.0 °F - 70.0 °F 84% 29.93 in 10.0 mi Variable 6.9 mph - N/A   Overcast
1:17 PM 77.0 °F - 71.1 °F 82% 29.95 in 10.0 mi ESE 6.9 mph - N/A   Overcast
1:53 PM 79.0 °F - 71.1 °F 77% 29.91 in 10.0 mi East 6.9 mph - N/A   Overcast
2:53 PM 78.1 °F - 69.1 °F 74% 29.90 in 10.0 mi ESE 11.5 mph - N/A   Scattered Clouds
3:53 PM 80.1 °F 83.2 °F 70.0 °F 71% 29.89 in 10.0 mi ESE 9.2 mph - N/A   Partly Cloudy
4:53 PM 80.1 °F 83.2 °F 70.0 °F 71% 29.88 in 10.0 mi SE 6.9 mph - N/A   Clear
5:07 PM 80.1 °F 83.2 °F 70.0 °F 71% 29.92 in 10.0 mi Variable 5.8 mph - N/A Thunderstorm Clear
5:22 PM 79.0 °F - 69.1 °F 72% 29.92 in 10.0 mi SSE 6.9 mph - N/A   Scattered Clouds
5:53 PM 75.9 °F - 70.0 °F 82% 29.89 in 10.0 mi WSW 5.8 mph - N/A   Scattered Clouds
6:04 PM 77.0 °F - 70.0 °F 79% 29.92 in 10.0 mi Variable 3.5 mph - N/A Thunderstorm Thunderstorm
6:19 PM 78.1 °F - 70.0 °F 76% 29.93 in 10.0 mi South 15.0 mph 23.0 mph N/A Thunderstorm Mostly Cloudy
6:48 PM 75.2 °F - 71.6 °F 89% 29.93 in 10.0 mi SE 4.6 mph - 0.02 in Rain Light Rain
6:53 PM 75.0 °F - 71.1 °F 87% 29.89 in 10.0 mi ESE 4.6 mph - 0.02 in Rain Light Rain
7:53 PM 73.9 °F - 72.0 °F 93% 29.90 in 10.0 mi Calm Calm - 0.00 in   Mostly Cloudy
8:53 PM 73.0 °F - 73.0 °F 100% 29.91 in 10.0 mi Calm Calm - 0.00 in   Overcast
9:53 PM 73.0 °F - 72.0 °F 96% 29.92 in 10.0 mi Calm Calm - 0.02 in   Scattered Clouds
10:53 PM 73.0 °F - 73.0 °F 100% 29.93 in 10.0 mi Calm Calm - N/A   Overcast
11:12 PM 73.0 °F - 72.0 °F 96% 29.96 in 9.0 mi Calm Calm - 0.00 in Rain Light Rain
11:31 PM 72.0 °F - 72.0 °F 100% 29.96 in 2.0 mi South 5.8 mph - 0.14 in Rain Heavy Rain
11:38 PM 71.1 °F - 71.1 °F 100% 29.97 in 1.0 mi South 8.1 mph - 0.25 in Rain Rain
11:43 PM 71.1 °F - 69.1 °F 93% 29.97 in 4.0 mi South 10.4 mph 19.6 mph 0.25 in Rain Light Rain
11:48 PM 69.8 °F - 69.8 °F 100% 29.97 in 10.0 mi SSE 9.2 mph 19.6 mph 0.25 in Rain , Thunderstorm Light Thunderstorms and Rain
11:53 PM 70.0 °F - 69.1 °F 97% 29.94 in 10.0 mi South 8.1 mph 18.4 mph 0.25 in Thunderstorm Thunderstorm